Terminal Aerodrome Forecast
Issued by NWS Chicago, IL

Home | Current Version | Previous Version | Graphics & Text | Print | Product List | Glossary On
Versions: 1 2 3 4 5 6 7 8 9 10 11 12 13 14 15 16 17 18 19 20 21 22 23 24 25 26 27 28 29 30 31 32 33 34 35
000
FTUS43 KLOT 241000 AAB
TAFRFD
TAF AMD
KRFD 241016Z 2410/2506 11005KT 6SM BR SCT018 BKN040
     FM241400 16010KT P6SM FEW015 BKN200
     FM250100 15006KT P6SM FEW025=

USA.gov is the U.S. government's official web portal to all federal, state and local government web resources and services.